sat.trackr.live / text

‹ back to catalog

TJS-10

NORAD 58204 · 2023-169A

PAYLOAD ACTIVE UNKNOWN

§ Identity

Operator
Country
PRC
Launch date
2023-11-03
Launch site
WSC
Launch vehicle
Mass (kg)
RCS (m²)

Purposes: comms

External: N2YO · Heavens-Above · Gunter

§ Orbital elements

Epoch: 2026-05-24T17:07:21.902016Z

Period
1,436.09 min
Inclination
2.4864°
Eccentricity
0.0003439
Mean motion
1.00272607 rev/d
Perigee alt
35,771.9 km
Apogee alt
35,800.9 km
Semi-major
42,164.5 km
B*
0.0000e+0
RAAN
80.7584°
Arg perigee
102.0770°
Mean anomaly
48.7777°
Rev number
930

§ Raw data

TJS-101 58204U 23169A   26144.71344794 -.00000253  00000+0  00000+0 0  99952 58204   2.4864  80.7584 0003439 102.0770  48.7777  1.00272607  9300

JSON: /api/v1/satellites/58204 · /tle

For live sub-satellite position, see the globe view (requires WebGL).

§ Visibility from observer

Set your observer location to see the next 7 days of passes ≥ 10°. The values pass through the URL so the page stays shareable.

No JS? Fill the form by hand. The geolocation button needs JavaScript.